Location: Hains Lake
(37.8540°N, 99.8578°W)
Time: 08:16:44
(UTC+00:00)

Vanguard 1 - Pass Details

Date: 27 April 2021
Orbit: 649 x 3834 km, 34.2° (Epoch: 04 May)

Event Time Altitude Azimuth Distance (km) Brightness Sun altitude
Rises 03:51:02 0° 276° (W) 7,836 15.4 -25.2°
Reaches altitude 10° 04:01:54 10° 254° (WSW) 6,934 14.7 -26.7°
Maximum altitude 04:09:27 13° 234° (SW) 6,575 14.3 -27.7°
Drops below altitude 10° 04:16:41 10° 214° (SW) 6,506 14.1 -28.7°
Enters shadow 04:24:42 - 193° (SSW) 6,786 14.0 -29.6°
